This is the latest recevied weather packets stored in our database for station/object IT9FBN-3. If no packets are shown the sender has not sent any weather packets the latest 10 day(s).
| Time | Temp. | Humidity | Pressure | Rain* | Wind** | Luminosity | Snow |
|---|---|---|---|---|---|---|---|
| 1777738204 | 16.11° C | 55% | 1021.2 hPa | 0 mm | - | - | - |
| 1777737904 | 16.11° C | 55% | 1021.3 hPa | 0 mm | - | - | - |
| 1777737004 | 16.67° C | 54% | 1021.3 hPa | 0 mm | - | - | - |
| 1777736404 | 16.67° C | 54% | 1021.1 hPa | 0 mm | - | - | - |
| 1777736104 | 16.67° C | 53% | 1021.1 hPa | 0 mm | - | - | - |
| 1777735804 | 16.67° C | 53% | 1021 hPa | 0 mm | - | - | - |
| 1777735504 | 16.67° C | 53% | 1021.2 hPa | 0 mm | - | - | - |
| 1777735204 | 16.67° C | 52% | 1021.2 hPa | 0 mm | - | - | - |
| 1777734904 | 16.67° C | 52% | 1021.1 hPa | 0 mm | - | - | - |
| 1777734604 | 16.67° C | 53% | 1021.2 hPa | 0 mm | - | - | - |
| 1777734304 | 16.67° C | 54% | 1021.2 hPa | 0 mm | - | - | - |
| 1777734004 | 16.67° C | 54% | 1021.1 hPa | 0 mm | - | - | - |
| 1777733404 | 16.67° C | 55% | 1021.2 hPa | 0 mm | - | - | - |
| 1777733104 | 16.67° C | 55% | 1021.3 hPa | 0 mm | - | - | - |
| 1777732804 | 16.67° C | 54% | 1021.3 hPa | 0 mm | - | - | - |
| 1777732504 | 17.22° C | 52% | 1021.2 hPa | 0 mm | - | - | - |
| 1777732204 | 17.22° C | 55% | 1021.2 hPa | 0 mm | - | - | - |
| 1777731904 | 16.67° C | 53% | 1021.4 hPa | 0 mm | - | - | - |
| 1777731604 | 16.67° C | 52% | 1021.5 hPa | 0 mm | - | - | - |
| 1777731304 | 17.22° C | 52% | 1021.4 hPa | 0 mm | - | - | - |
| 1777731004 | 17.22° C | 51% | 1021.4 hPa | 0 mm | - | - | - |
| 1777730704 | 17.22° C | 53% | 1021.4 hPa | 0 mm | - | - | - |
| 1777730104 | 17.22° C | 53% | 1021.4 hPa | 0 mm | - | - | - |
| 1777729804 | 17.22° C | 54% | 1021.5 hPa | 0 mm | - | - | - |
| 1777729204 | 17.22° C | 54% | 1021.4 hPa | 0 mm | - | - | - |
* Rain latest hour (hover to see other rain measurements)
** Current wind speed in m/s (hover to see current wind gust speed)